This demonstration page uses our WeatherBlox Daily Observations layout. Learn more.

Left ArrowRight Arrow

39.01783, -85.05884

Hourly Observations for November 29, 2022

Temp ( °F °C ) Dew Point ( °F °C ) Humidity (%) Winds ( mph kmh ) Pressure ( in mb ) Visibility ( mi km ) Precip ( " mm )
12:52 am 00:52 Cloudy with Mist and Fog 45 7.2 42 5.6 90 90 S 7 11 30.02 1017 5 8 0.00 0.00
1:52 am 01:52 Cloudy with Mist and Fog 45 7.2 42 5.6 90 90 SSE 6 9 30.02 1017 5 8 0.00 0.00
2:52 am 02:52 Cloudy with Mist and Fog 45 7.2 42 5.6 90 90 S 5 7 30.03 1017 5 8 0.00 0.00
3:52 am 03:52 Cloudy with Mist and Fog 45 7.2 42 5.6 90 90 SSE 8 13 30.03 1017 6 10 0.00 0.00
4:17 am 04:17 Mostly Cloudy with Mist and Fog 44 6.7 41 5 89 89 SSE 8 13 30.04 1017 6 10 0.00 0.00
4:52 am 04:52 Mostly Cloudy with Mist and Fog 43 6.1 41 5 93 93 S 5 7 30.03 1017 5 8 0.00 0.00
5:52 am 05:52 Partly Cloudy with Mist and Fog 42 5.6 40 4.4 92 92 SSE 6 9 30.03 1017 5 8 0.00 0.00
6:52 am 06:52 Cloudy 42 5.6 40 4.4 92 92 S 8 13 30.03 1017 10 16 0.00 0.00
7:52 am 07:52 Cloudy 43 6.1 41 5 93 93 SSE 12 19 30.02 1017 10 16 0.00 0.00
8:52 am 08:52 Cloudy 46 7.8 41 5 82 82 SSE 14 22 30.03 1017 10 16 0.00 0.00
9:52 am 09:52 Cloudy 48 8.9 42 5.6 80 80 S 15 24 30.02 1017 10 16 0.00 0.00
10:52 am 10:52 Mostly Cloudy 51 10.6 43 6.1 74 74 SSE 14 22 29.99 1016 10 16 0.00 0.00
11:52 am 11:52 Mostly Cloudy 56 13.3 44 6.7 64 64 S 17 28 29.96 1015 10 16 0.00 0.00
12:52 pm 12:52 Mostly Cloudy 58 14.4 45 7.2 62 62 S 15 24 29.91 1013 10 16 0.01 0.13
1:52 pm 13:52 Mostly Cloudy 60 15.6 47 8.3 62 62 S 16 26 29.85 1011 10 16 0.00 0.00
2:52 pm 14:52 Cloudy 59 15 47 8.3 64 64 S 15 24 29.84 1011 10 16 0.00 0.00
3:52 pm 15:52 Cloudy 58 14.4 47 8.3 67 67 S 18 30 29.84 1011 10 16 0.00 0.00
4:52 pm 16:52 Cloudy 58 14.4 46 7.8 65 65 SSE 16 26 29.83 1010 10 16 0.00 0.00
5:52 pm 17:52 Mostly Cloudy 58 14.4 45 7.2 62 62 SSE 17 28 29.78 1009 10 16 0.00 0.00
6:52 pm 18:52 Partly Cloudy 56 13.3 43 6.1 62 62 SSE 13 20 29.77 1008 10 16 0.00 0.00
7:52 pm 19:52 Mostly Cloudy 56 13.3 43 6.1 62 62 SSE 16 26 29.74 1007 10 16 0.00 0.00
8:52 pm 20:52 Mostly Cloudy 57 13.9 45 7.2 64 64 SSE 14 22 29.70 1006 10 16 0.00 0.00
9:52 pm 21:52 Cloudy with Light Rain 56 13.3 49 9.4 77 77 S 14 22 29.70 1006 9 14 0.01 0.13
10:52 pm 22:52 Cloudy with Light Rain 55 12.8 52 11.1 89 89 SSW 12 19 29.70 1006 8 13 0.07 1.78
11:52 pm 23:52 Cloudy with Light Rain 54 12.2 54 12.2 100 100 SSW 10 17 29.71 1006 3 5 0.20 5.08

Powered by AerisWeather